| time (UTC) | temp F | wind direction | speed knots | gust knots | rain 1hr in | rain 24hr in | rain mn in | humidity % | barometer mb |
| 20260507071520 | 50 | 70 | 1.7 | 3.5 | 0.00 | 0.00 | 0.00 | 85 | 1014.3 |
| 20260507070515 | 49 | 350 | 1.7 | 4.3 | 0.00 | 0.00 | 0.00 | 85 | 1014.2 |
| 20260507065522 | 49 | 18 | 1.7 | 3.5 | 0.00 | 0.00 | 0.00 | 86 | 1014.1 |
| 20260507064517 | 48 | 349 | 1.7 | 3.5 | 0.00 | 0.00 | 0.00 | 87 | 1014.1 |
| 20260507063523 | 48 | 33 | 0.9 | 2.6 | 0.00 | 0.00 | 0.00 | 87 | 1014.0 |
| 20260507062519 | 48 | 16 | 1.7 | 3.5 | 0.00 | 0.00 | 0.00 | 89 | 1013.7 |
| 20260507061545 | 47 | 16 | 1.7 | 3.5 | 0.00 | 0.00 | 0.00 | 90 | 1013.8 |
| 20260507060520 | 46 | 354 | 2.6 | 6.1 | 0.00 | 0.00 | 0.00 | 90 | 1013.6 |
| 20260507055516 | 46 | 353 | 1.7 | 4.3 | 0.00 | 0.00 | 0.00 | 91 | 1013.5 |
| 20260507054522 | 46 | 15 | 1.7 | 4.3 | 0.00 | 0.00 | 0.00 | 91 | 1013.5 |
| 20260507053518 | 46 | 358 | 2.6 | 4.3 | 0.00 | 0.00 | 0.00 | 92 | 1013.4 |
| 20260507052523 | 46 | 353 | 1.7 | 5.2 | 0.00 | 0.00 | 0.00 | 92 | 1013.4 |
| 20260507051519 | 46 | 336 | 2.6 | 5.2 | 0.00 | 0.00 | 0.00 | 92 | 1013.2 |
| 20260507050525 | 46 | 352 | 1.7 | 3.5 | 0.00 | 0.00 | 0.00 | 92 | 1013.2 |
| 20260507045521 | 45 | 323 | 2.6 | 5.2 | 0.00 | 0.00 | 0.00 | 92 | 1012.9 |
| 20260507044537 | 45 | 360 | 1.7 | 5.2 | 0.00 | 0.00 | 0.00 | 92 | 1012.8 |
| 20260507043523 | 45 | 337 | 1.7 | 3.5 | 0.00 | 0.00 | 0.00 | 92 | 1012.8 |
| 20260507042518 | 45 | 344 | 1.7 | 4.3 | 0.00 | 0.00 | 0.00 | 92 | 1012.7 |
| 20260507041524 | 45 | 339 | 2.6 | 4.3 | 0.00 | 0.00 | 0.00 | 93 | 1012.7 |
| 20260507040520 | 45 | 13 | 0.9 | 2.6 | 0.00 | 0.00 | 0.00 | 93 | 1012.7 |